• In Russia
  • List of Countries
  • For 7 days
  • Water Temperature
  • Satellite Maps
  • Weather Map
  • Weather Widgets
  • user-avatar
    Login

    Hourly Weather Melbourne

    Today, 28 February, Tuesday

    Time Temperature Precipitation Wind Pressure Humidity
    00:00 +19°C° 0 mm 1 mps 764 mmHg 78%
    01:00 +18°C° 0 mm 1 mps 764 mmHg 85%
    02:00 +18°C° 0 mm 1 mps 764 mmHg 83%
    03:00 +18°C° 0 mm 1 mps 764 mmHg 81%
    04:00 +19°C° 0 mm 1 mps 764 mmHg 72%
    05:00 +20°C° 0 mm 1 mps 764 mmHg 69%
    06:00 +20°C° 0 mm 1 mps 764 mmHg 66%
    07:00 +21°C° 0 mm 1 mps 765 mmHg 63%
    08:00 +24°C° 0 mm 1 mps 765 mmHg 54%
    09:00 +27°C° 0 mm 1 mps 765 mmHg 45%
    10:00 +30°C° 0 mm 1 mps 765 mmHg 37%
    11:00 +31°C° 0 mm 1 mps 764 mmHg 32%
    12:00 +33°C° 0 mm 1 mps 764 mmHg 27%
    13:00 +35°C° 0 mm 1 mps 763 mmHg 23%
    14:00 +35°C° 0 mm 1 mps 763 mmHg 23%
    15:00 +35°C° 0 mm 2 mps 763 mmHg 23%
    16:00 +35°C° 0 mm 3 mps 762 mmHg 23%
    17:00 +32°C° 0 mm 2 mps 762 mmHg 29%
    18:00 +29°C° 0 mm 2 mps 763 mmHg 34%
    19:00 +27°C° 0 mm 2 mps 763 mmHg 39%
    20:00 +25°C° 0 mm 2 mps 763 mmHg 47%
    21:00 +23°C° 0 mm 2 mps 763 mmHg 54%
    22:00 +20°C° 0 mm 1 mps 764 mmHg 61%
    23:00 +20°C° 0 mm 1 mps 763 mmHg 64%

    Tomorrow, 1 March, Wednesday

    Time Temperature Precipitation Wind Pressure Humidity
    00:00 +19°C° 0 mm 1 mps 763 mmHg 67%
    01:00 +16°C° 0 mm 0 mps 763 mmHg 70%
    02:00 +16°C° 0 mm 0 mps 763 mmHg 70%
    03:00 +15°C° 0 mm 0 mps 763 mmHg 71%
    04:00 +15°C° 0 mm 0 mps 763 mmHg 71%
    05:00 +18°C° 0 mm 1 mps 763 mmHg 66%
    06:00 +20°C° 0 mm 1 mps 764 mmHg 62%
    07:00 +21°C° 0 mm 1 mps 764 mmHg 57%
    08:00 +24°C° 0 mm 1 mps 764 mmHg 52%
    09:00 +27°C° 0 mm 1 mps 764 mmHg 48%
    10:00 +30°C° 0 mm 1 mps 764 mmHg 43%
    11:00 +32°C° 0 mm 1 mps 763 mmHg 36%
    12:00 +34°C° 0 mm 1 mps 763 mmHg 30%
    13:00 +35°C° 0 mm 1 mps 762 mmHg 23%
    14:00 +36°C° 0 mm 2 mps 762 mmHg 23%
    15:00 +35°C° 0 mm 2 mps 762 mmHg 23%
    16:00 +35°C° 0 mm 3 mps 761 mmHg 23%
    17:00 +31°C° 0 mm 3 mps 761 mmHg 28%
    18:00 +28°C° 0 mm 2 mps 761 mmHg 34%
    19:00 +26°C° 0 mm 2 mps 761 mmHg 40%
    20:00 +24°C° 0 mm 1 mps 762 mmHg 46%
    21:00 +22°C° 0 mm 1 mps 762 mmHg 53%
    22:00 +20°C° 0 mm 1 mps 762 mmHg 59%
    23:00 +19°C° 0 mm 1 mps 762 mmHg 61%

    Day after tomorrow, 2 March, Thursday

    Time Temperature Precipitation Wind Pressure Humidity
    00:00 +18°C° 0 mm 1 mps 762 mmHg 63%
    01:00 +18°C° 0 mm 1 mps 762 mmHg 65%
    02:00 +15°C° 0 mm 0 mps 762 mmHg 68%
    03:00 +15°C° 0 mm 0 mps 761 mmHg 71%
    04:00 +14°C° 0 mm 0 mps 761 mmHg 74%
    05:00 +16°C° 0 mm 0 mps 762 mmHg 70%
    06:00 +17°C° 0 mm 0 mps 762 mmHg 66%
    07:00 +18°C° 0 mm 0 mps 762 mmHg 62%
    08:00 +22°C° 0 mm 0 mps 762 mmHg 51%
    09:00 +26°C° 0 mm 0 mps 763 mmHg 41%
    10:00 +32°C° 0 mm 1 mps 763 mmHg 30%
    11:00 +32°C° 0 mm 1 mps 762 mmHg 28%
    12:00 +34°C° 0 mm 2 mps 762 mmHg 26%
    13:00 +34°C° 0 mm 3 mps 761 mmHg 24%
    14:00 +34°C° 0 mm 3 mps 761 mmHg 26%
    15:00 +33°C° 0 mm 3 mps 761 mmHg 28%
    16:00 +33°C° 0 mm 4 mps 761 mmHg 29%
    17:00 +29°C° 0 mm 3 mps 761 mmHg 40%
    18:00 +27°C° 0 mm 3 mps 762 mmHg 51%
    19:00 +24°C° 0 mm 3 mps 762 mmHg 62%
    20:00 +22°C° 0 mm 3 mps 763 mmHg 72%
    21:00 +21°C° 0 mm 3 mps 763 mmHg 83%
    22:00 +20°C° 0 mm 3 mps 764 mmHg 93%
    23:00 +19°C° 0 mm 3 mps 764 mmHg 93%

    3 March, Friday

    Time Temperature Precipitation Wind Pressure Humidity
    00:00 +19°C° 0 mm 3 mps 764 mmHg 93%
    01:00 +19°C° 0 mm 3 mps 764 mmHg 93%
    02:00 +19°C° 0 mm 3 mps 764 mmHg 92%
    03:00 +19°C° 0 mm 2 mps 764 mmHg 92%
    04:00 +19°C° 0 mm 2 mps 764 mmHg 92%
    05:00 +19°C° 0 mm 2 mps 764 mmHg 92%
    06:00 +19°C° 0 mm 2 mps 764 mmHg 91%
    07:00 +19°C° 0 mm 2 mps 765 mmHg 91%
    08:00 +20°C° 0 mm 2 mps 765 mmHg 84%
    09:00 +23°C° 0 mm 2 mps 765 mmHg 77%
    10:00 +24°C° 0 mm 2 mps 765 mmHg 70%
    11:00 +26°C° 0 mm 3 mps 765 mmHg 64%
    12:00 +27°C° 0 mm 3 mps 764 mmHg 58%
    13:00 +29°C° 0 mm 3 mps 764 mmHg 52%
    14:00 +29°C° 0 mm 3 mps 763 mmHg 51%
    15:00 +29°C° 0 mm 4 mps 763 mmHg 50%
    16:00 +29°C° 0 mm 4 mps 762 mmHg 50%
    17:00 +28°C° 0 mm 4 mps 763 mmHg 55%
    18:00 +26°C° 0 mm 4 mps 763 mmHg 60%
    19:00 +24°C° 0 mm 3 mps 763 mmHg 65%
    20:00 +22°C° 0 mm 3 mps 764 mmHg 72%
    21:00 +20°C° 0 mm 3 mps 764 mmHg 78%
    22:00 +19°C° 0 mm 3 mps 764 mmHg 85%
    23:00 +18°C° 0 mm 3 mps 764 mmHg 87%

    4 March, Saturday

    Time Temperature Precipitation Wind Pressure Humidity
    00:00 +18°C° 0 mm 3 mps 764 mmHg 90%
    01:00 +17°C° 0 mm 2 mps 763 mmHg 92%
    02:00 +16°C° 0 mm 2 mps 763 mmHg 93%
    03:00 +16°C° 0 mm 2 mps 763 mmHg 94%
    04:00 +16°C° 0 mm 1 mps 763 mmHg 95%
    05:00 +16°C° 0 mm 1 mps 763 mmHg 93%
    06:00 +18°C° 0 mm 1 mps 763 mmHg 91%
    07:00 +18°C° 0 mm 1 mps 764 mmHg 90%
    08:00 +21°C° 0 mm 1 mps 763 mmHg 76%
    09:00 +24°C° 0 mm 1 mps 763 mmHg 63%
    10:00 +27°C° 0 mm 1 mps 763 mmHg 50%
    11:00 +29°C° 0 mm 1 mps 762 mmHg 45%
    12:00 +30°C° 0 mm 1 mps 762 mmHg 40%
    13:00 +32°C° 0 mm 1 mps 761 mmHg 35%
    14:00 +32°C° 0 mm 2 mps 761 mmHg 36%
    15:00 +31°C° 0 mm 2 mps 760 mmHg 36%
    16:00 +31°C° 0 mm 3 mps 760 mmHg 36%
    17:00 +29°C° 0 mm 3 mps 760 mmHg 44%
    18:00 +26°C° 0 mm 2 mps 760 mmHg 52%
    19:00 +24°C° 0 mm 2 mps 760 mmHg 60%
    20:00 +23°C° 0 mm 2 mps 761 mmHg 69%
    21:00 +21°C° 0 mm 1 mps 761 mmHg 78%
    22:00 +20°C° 0 mm 1 mps 761 mmHg 87%
    23:00 +19°C° 0 mm 1 mps 761 mmHg 90%

    5 March, Sunday

    Time Temperature Precipitation Wind Pressure Humidity
    00:00 +18°C° 0 mm 1 mps 761 mmHg 92%
    01:00 +18°C° 0 mm 1 mps 761 mmHg 95%
    02:00 +18°C° 0 mm 1 mps 760 mmHg 96%
    03:00 +16°C° 0 mm 1 mps 760 mmHg 97%
    04:00 +16°C° 0 mm 1 mps 760 mmHg 97%
    05:00 +18°C° 0 mm 1 mps 761 mmHg 97%
    06:00 +18°C° 0 mm 1 mps 761 mmHg 96%
    07:00 +19°C° 0 mm 1 mps 762 mmHg 95%
    08:00 +21°C° 0 mm 1 mps 762 mmHg 88%
    09:00 +21°C° 0 mm 2 mps 762 mmHg 80%
    10:00 +24°C° 0 mm 2 mps 762 mmHg 72%
    11:00 +25°C° 0 mm 2 mps 762 mmHg 67%
    12:00 +26°C° 0 mm 3 mps 762 mmHg 63%
    13:00 +27°C° 0 mm 3 mps 761 mmHg 58%
    14:00 +27°C° 0 mm 4 mps 761 mmHg 58%
    15:00 +27°C° 0 mm 4 mps 761 mmHg 58%
    16:00 +27°C° 0 mm 4 mps 761 mmHg 58%
    17:00 +26°C° 0 mm 4 mps 761 mmHg 62%
    18:00 +23°C° 0 mm 4 mps 762 mmHg 67%
    19:00 +22°C° 0 mm 4 mps 762 mmHg 72%
    20:00 +21°C° 0 mm 4 mps 762 mmHg 75%
    21:00 +20°C° 0 mm 4 mps 763 mmHg 79%
    22:00 +19°C° 0 mm 3 mps 763 mmHg 83%
    23:00 +18°C° 0 mm 3 mps 763 mmHg 87%
    Show more